Location: Hurstbourne Priors
(51.2000°N, 1.3667°W)
Time: 20:00:10
(UTC+00:00)

Transit 4A - Pass Details

Date: 24 April 2021
Orbit: 870 x 974 km, 66.8° (Epoch: 09 May)

Event Time Altitude Azimuth Distance (km) Brightness Sun altitude
Rises 08:42:23 0° 313° (NW) 3,507 10.4 34.4°
Reaches altitude 10° 08:45:38 10° 296° (WNW) 2,548 9.8 34.9°
Maximum altitude 08:49:29 18° 255° (WSW) 1,996 9.5 35.4°
Drops below altitude 10° 08:53:19 10° 213° (SSW) 2,515 10.2 36.0°
Sets 08:56:31 0° 195° (SSW) 3,445 11.0 36.4°
